Weather History for KFAR - September, 2013

Change the Weather History Date:

Friday, September 13, 2013

  Actual Average Record
Temperature  
Mean Temperature 63 °F 60 °F  
Max Temperature 77 °F 72 °F 94 °F (1927)
Min Temperature 48 °F 49 °F 27 °F (1923)
Degree Days  
Heating Degree Days 2 6  
Month to date heating degree days 16 58  
Since 1 July heating degree days 50 108  
Cooling Degree Days 0 2  
Month to date cooling degree days 55 31  
Year to date cooling degree days 673 536  
Growing Degree Days 12 (Base 50)    
Moisture  
Dew Point 48 °F    
Average Humidity 64    
Maximum Humidity 89    
Minimum Humidity 38    
Precipitation  
Precipitation 0.00 in 0.09 in 3.80 in (1889)
Month to date precipitation 1.66 1.26  
Year to date precipitation 23.58 17.32  
Snow  
Snow 0.00 in 0.00 in 0.00 in ()
Month to date snowfall 0.0 0.0  
Since 1 July snowfall 0.0 0.0  
Since 1 September snowfall 0.0 0.0  
Snow Depth 0.00 in    
Sea Level Pressure  
Sea Level Pressure 30.14 in    
Wind  
Wind Speed 9 mph (South)    
Max Wind Speed 18 mph    
Max Gust Speed 24 mph    
Visibility 10 miles    
Events      
T = Trace of Precipitation, MM = Missing Value Source: NWS Daily Summary

Daily Weather History Graph

Daily Weather History Graph

Search for Another Location

Airport or City:

Trip Planner

Search our weather history database for the weather conditions in past years. The results will help you decide how hot, cold, wet, or windy it might be!

Date:

Astronomy

Sep. 13, 2013 Rise Set
Actual Time 7:02 AM CDT 7:42 PM CDT
Civil Twilight 6:32 AM CDT 8:13 PM CDT
Nautical Twilight 5:55 AM CDT 8:49 PM CDT
Astronomical Twilight 5:17 AM CDT 9:27 PM CDT
Moon 3:49 PM CDT (9/13) 12:16 AM CDT (9/13)
Length of Visible Light 13h 41m
Length of Day
12h 39m
First Quarter, 61% of the Moon is Illuminated
Sep 13
First Quarter
Sep 19
Full
Sep 26
Last Quarter
Oct 4
New
Oct 11
First Quarter

Hourly Weather History & Observations

Time (CDT) Temp. Dew Point Humidity Pressure Visibility Wind Dir Wind Speed Gust Speed Precip Events Conditions
12:53 AM 52.0 °F 48.0 °F 86% 30.24 in 9.0 mi Calm Calm - N/A   Clear
1:53 AM 50.0 °F 46.9 °F 89% 30.24 in 10.0 mi Calm Calm - N/A   Clear
2:53 AM 50.0 °F 46.0 °F 86% 30.24 in 10.0 mi Calm Calm - N/A   Clear
3:53 AM 48.0 °F 45.0 °F 89% 30.23 in 9.0 mi SSE 3.5 mph - N/A   Clear
4:53 AM 50.0 °F 46.0 °F 86% 30.23 in 10.0 mi South 6.9 mph - N/A   Clear
5:53 AM 52.0 °F 46.9 °F 83% 30.23 in 10.0 mi South 6.9 mph - N/A   Clear
6:53 AM 53.1 °F 46.9 °F 80% 30.23 in 10.0 mi SSE 6.9 mph - N/A   Clear
7:53 AM 53.1 °F 46.9 °F 80% 30.23 in 10.0 mi SSE 6.9 mph - N/A   Clear
8:53 AM 57.0 °F 48.0 °F 72% 30.22 in 10.0 mi South 6.9 mph - N/A   Clear
9:53 AM 61.0 °F 48.9 °F 64% 30.21 in 10.0 mi South 8.1 mph - N/A   Clear
10:53 AM 66.0 °F 51.1 °F 59% 30.20 in 10.0 mi South 8.1 mph - N/A   Clear
11:53 AM 69.1 °F 51.1 °F 53% 30.19 in 10.0 mi South 10.4 mph - N/A   Clear
12:53 PM 72.0 °F 50.0 °F 46% 30.16 in 10.0 mi SSW 10.4 mph - N/A   Clear
1:53 PM 73.9 °F 48.0 °F 40% 30.13 in 10.0 mi South 9.2 mph 19.6 mph N/A   Clear
2:53 PM 75.0 °F 48.9 °F 40% 30.09 in 10.0 mi South 15.0 mph 20.7 mph N/A   Clear
3:53 PM 75.9 °F 48.0 °F 37% 30.07 in 10.0 mi South 15.0 mph - N/A   Clear
4:53 PM 75.9 °F 48.9 °F 38% 30.05 in 10.0 mi South 11.5 mph - N/A   Clear
5:53 PM 75.0 °F 48.9 °F 40% 30.03 in 10.0 mi South 12.7 mph - N/A   Clear
6:53 PM 73.0 °F 48.0 °F 41% 30.01 in 10.0 mi South 9.2 mph - N/A   Clear
7:53 PM 71.1 °F 48.0 °F 44% 29.99 in 10.0 mi SSE 8.1 mph - N/A   Clear
8:53 PM 66.9 °F 48.0 °F 51% 29.99 in 10.0 mi SSE 11.5 mph - N/A   Clear
9:53 PM 64.9 °F 46.9 °F 52% 29.97 in 10.0 mi SSE 13.8 mph 21.9 mph N/A   Clear
10:53 PM 62.1 °F 46.9 °F 58% 29.97 in 10.0 mi SSE 12.7 mph 21.9 mph N/A   Clear
11:53 PM 61.0 °F 46.9 °F 60% 29.96 in 10.0 mi SSE 12.7 mph 20.7 mph N/A   Clear